Preview of NWS' New Version of Forecast
This preview is not operational and should not be used for support decisions.
Latest weather observations around

Westfield, Barnes Municipal Airport (KBAF)

Using International System of Units (Switch to English Units)
Date/ Time (EDT) Wind (kph) Vis. (km) Weather Sky Cond. Temp (°C) Rel. Humidity Wind Chill (°C) Heat Index (°C) Pressure Precip. (cm)
Air Dwpt 6 hour Altimeter (hPa) Sea level (hPa) 1 hr 3 hr 6 hr
Max Min
Aug 25 11:53 NE 17 16.09 Partly Cloudy SCT041 22 10     46%   22 1026.4 1026.4      
Aug 25 10:53 NNE 15 16.09 Cloudy BKN033 BKN042 OVC050 21 12     59%     1026.8 1026.7      
Aug 25 09:53 NE 15 16.09 Mostly Cloudy BKN023 BKN055 19 13     68%     1027.4 1027.2      
Aug 25 09:18 N 15 16.09 Mostly Cloudy BKN023 BKN028 BKN055 19 13     70%     1027.4        
Aug 25 08:53 NNE 11 16.09 Cloudy OVC060 18 13     73%     1027.1 1027      
Aug 25 07:53 NNE 11 16.09 Cloudy BKN025 OVC055 16 13     83%     1026.8 1026.9      
Aug 25 06:53 N 9 16.09 Cloudy BKN027 OVC036 15 13     90%     1026.4 1026.4      
Aug 25 06:02 N 9 16.09 Cloudy BKN029 BKN034 OVC055 14 13     93%     1026.1        
Aug 25 05:53 N 8 16.09 Cloudy BKN032 OVC050 14 13     93%     1026.1 1026.1      
Aug 25 04:53 NNE 8 16.09 Clear CLR 13 12     93%     1026.1 1026      
Aug 25 03:53 N 8 16.09 Clear CLR 14 12     89%     1026.1 1025.8      
Aug 25 02:53 ENE 5 16.09 Mostly Clear FEW070 14 13     90%     1025.7 1025.5      
Aug 25 01:53 N 5 16.09 Cloudy OVC070 16 13     81%     1026.1 1025.8      
Aug 25 00:53 N 5 16.09 Cloudy BKN060 OVC080 17 13     78%     1026.1 1026.1      
Aug 24 23:53 E 5 16.09 Cloudy SCT045 SCT055 OVC075 18 12     70%     1026.1 1026      
Aug 24 22:53 5 16.09 Cloudy BKN055 OVC085 19 13     68%     1025.7 1025.5      
Aug 24 21:53 E 13 16.09 Cloudy FEW049 SCT060 OVC075 20 13     63%     1024.7 1024.8      
Aug 24 20:53 ESE 8 16.09 Cloudy BKN055 OVC075 21 12     59%     1024.1 1023.8      
Aug 24 19:53 NE 5 16.09 Cloudy OVC080 19 14     73%     1023 1023.1      
Aug 24 18:53 Calm 16.09 Cloudy OVC075 22 13     55%   22 1022.7 1022.7      
Aug 24 17:53 NNE 11 16.09 Mostly Cloudy FEW055 BKN070 23 11     46%   23 1022 1022.2      
Aug 24 16:53 5 16.09 Cloudy OVC060 23 11     45%   23 1022 1021.8      
Aug 24 15:53 5 16.09 Mostly Cloudy BKN065 24 11     43%   23 1021.7 1021.5      
Aug 24 14:53 NNE 9 16.09 Mostly Cloudy BKN050 BKN060 23 11     46%   22 1021.7 1021.7      
Aug 24 13:53 N 13 16.09 Mostly Cloudy BKN049 23 10     43%   23 1021.7 1021.7      
Aug 24 12:53 NNE 13 16.09 Clear CLR 23 9     43%   22 1021.7 1021.6      
Aug 24 11:53 NNE 18 16.09 Clear CLR 22 11     48%   22 1021.7 1021.5      
Aug 24 10:53 NNW 24 16.09 Clear CLR 22        %     1021.7 1021.6      
Aug 24 09:53 NNE 15 16.09 Clear CLR 20        %     1021.7 1021.7      
Aug 24 08:53 8 16.09 Clear CLR 18 11     63%     1021.7 1021.5      
Aug 24 07:53 NNE 5 16.09 Clear CLR 15        %     1021.7 1021.7      
Aug 24 06:53 N 8 16.09 Clear CLR 12        %     1021.3 1021.2      
Aug 24 05:53 Calm 16.09 Clear CLR 10        %     1020.3 1020.4      
Aug 24 04:53 N 8 16.09 Clear CLR 12        %     1020 1020      
Aug 24 03:53 N 9 16.09 Clear CLR 12        %       1019.6      
Aug 24 02:53 N 5 16.09 Clear CLR 12 11     93%       1019.3      
Aug 24 01:53 Calm 16.09 Clear CLR 12 11     93%     1019.3 1019.2      
Aug 24 00:53 Calm 16.09 Clear CLR 13 12     93%     1019 1018.9      
Aug 23 23:53 NNE 8 16.09 Clear CLR 16 13     83%     1018.6 1018.3      
Aug 23 22:53 Calm 16.09 Clear CLR 14 13     90%     1017.6 1017.5      
Aug 23 21:53 N 5 16.09 Clear CLR 17 13     75%     1016.9 1016.8      
Aug 23 20:53 N 8 16.09 Clear CLR 19 13     68%     1016.6 1016.5      
Aug 23 19:53 N 9 16.09 Partly Cloudy SCT060 21 12     59%     1015.9 1015.8      
Aug 23 18:53 N 9 16.09 Mostly Clear FEW060 22 12     55%   21 1015.6 1015.5      
Aug 23 17:53 NW 15 16.09 Mostly Cloudy BKN055 BKN065 23 12     48%   23 1015.2 1015.1      
Aug 23 16:53 E 5 16.09 Mostly Cloudy BKN060 23 13     53%   23 1014.9 1014.8      
Aug 23 15:53 WNW 17 16.09 Mostly Clear FEW060 25 11     40%   25 1014.9 1014.6      
Aug 23 14:53 NNW 17 16.09 Clear CLR 26 10     37%   25 1014.9 1014.7      
Aug 23 13:53 WNW 11 16.09 Clear CLR 24 11     42%   24 1014.9 1014.7      
Aug 23 12:53 NNW 22 16.09 Mostly Clear FEW060 25 9     37%   25 1014.9 1014.7      
Aug 23 11:53 NE 5 16.09 Clear CLR 24 12     46%   24 1015.2 1015      
Aug 23 10:53 Calm 16.09 Clear CLR 22 14     59%   22 1015.9 1015.6      
Aug 23 09:53 5 16.09 Clear CLR 22 13     57%   22 1015.6 1015.4      
Aug 23 08:53 WNW 5 16.09 Mostly Clear FEW110 19 13     66%     1015.6 1015.5      
Aug 23 07:53 N 9 16.09 Partly Cloudy SCT120 19 13     68%     1015.2 1015.1      
Aug 23 06:53 Calm 16.09 Partly Cloudy SCT120 18 13     70%     1014.9 1014.5      
Aug 23 05:53 NNW 8 16.09 Mostly Clear FEW110 19 12     65%     1013.9 1013.8      
Aug 23 04:53 NW 15 16.09 Cloudy OVC100 19 12     65%     1013.6 1013.3      
Aug 23 03:53 N 8 16.09 Cloudy FEW045 BKN060 OVC085 19 15     76%     1013.6 1013.2      
Aug 23 02:53 WNW 9 16.09 Cloudy BKN043 OVC100 19 16     79%     1013.6 1013.1      
Aug 23 01:53 Calm 16.09 Cloudy BKN042 OVC060 18 17     93%     1013.2 1012.9 0   0
Aug 23 00:53 WNW 9 16.09 Light Rain OVC046 22 13     59%   21 1013.6 1013.1 0    
Aug 22 23:53 N 5 16.09 Cloudy OVC050 23 13     55%   23 1012.9 1012.5      
Aug 22 22:53 NE 8 16.09 Cloudy OVC065 23        %     1012.2 1011.9      
Aug 22 21:53 NNW 18 16.09 Cloudy OVC080 24        %     1012.2 1011.9      
Aug 22 20:53 NW 9 16.09 Cloudy OVC095 23        %     1011.9 1011.6      
Aug 22 19:53 S 5 16.09 Clear CLR 23        %     1011.2 1010.8     0
Aug 22 18:53 S 5 16.09 Clear CLR 25        %     1010.8 1010.7      
Aug 22 17:53 WSW 11 16.09 Cloudy OVC090 27        %     1011.2 1010.8 0    
Aug 22 16:53 W 18 16.09 Cloudy OVC070 27        %     1010.5 1010.3      
Aug 22 15:53 W 17 16.09 Mostly Clear FEW055 32        %     1010.2 1009.8      
Aug 22 14:53 WNW 13 16.09 Partly Cloudy FEW050 FEW065 SCT080 31        %     1010.8 1010.4      
Aug 22 13:53 NNW 17 16.09 Partly Cloudy SCT047 SCT060 30        %     1010.8 1010.6      
Aug 22 12:53 WNW 13 16.09 Partly Cloudy FEW041 SCT050 29        %     1010.8 1010.5      
May 14 07:53 S 13 16.09 Cloudy OVC007 11 9     92%     1016.6 1016.9      
May 14 06:53 S 5 16.09 Cloudy OVC008 11 9     92%     1016.6 1016.7      
May 14 05:12 S 8 16.09 Cloudy FEW007 BKN019 OVC050 10 9     96% 9   1015.6        
May 12 04:53 N 13 16.09 Cloudy OVC085 11 1     52%     1021.7 1021.5      
May 12 02:53 NNE 13 16.09 Cloudy OVC110 11 2     56%     1020.7 1020.7      
Jun 12 01:53 SSE 9 16.09 Clear CLR 19 17     90%     1014.6 1014.1      
Jun 11 03:53 SSE 8 16.09 Clear CLR 18 16     87%     1015.2 1014.8      
Jun 10 00:53 Calm 16.09 Clear CLR 14 11     81%     1011.2 1011.1      
Jun 09 15:53 9 16.09 Clear CLR 25 9     37%   25 1005.1 1005      
Jun 09 12:53 NW 15 16.09 Clear CLR 24 11     45%   24 1005.4 1005.3      
Jun 08 19:53 S 11 16.09 Clear   17 8     56%     1011.9 1011.9      
Jun 08 03:15 Calm 6.44 Fog/Mist CLR 8 8     100%     1016.6        
Jun 07 21:53 SSW 5 16.09 Clear CLR 13 12     93%     1016.3 1016.2 0    
Notice The following observation data may not be complete
Jun 07 20:53 Calm 16.09 Clear CLR   13      %     1015.2 1015.3 0    
Jun 06 10:19 N 21 16.09 Light Rain OVC012 10 9     96% 7   1009.2   0    
Jun 06 05:53 NE 18 16.09 Cloudy OVC017 11 9     89%     1008.5 1008.6      
Jun 06 04:53 NNE 13 16.09 Cloudy OVC017 12 11     93%     1008.1 1008.2 0 0  
Jun 05 19:24 NE 8 2.82 Light Rain and Fog/Mist BKN006 BKN015 OVC023 13 13     100%     1009.8   0    
Jun 05 18:49 NNE 9 4.02 Light Rain and Fog/Mist OVC013 13 13     100%     1009.8   0